Time,TemperatureF,DewpointF,PressureIn,WindDirection,WindDirectionDegrees,WindSpeedMPH,WindSpeedGustMPH,Humidity,HourlyPrecipIn,Conditions,Clouds,dailyrainin,SoftwareType,DateUTC
2013-06-25 00:11:00,65.0,44.0,29.66,NNE,22,2.0,-999.0,48,-99.99,,,-99.99,,2013-06-25 06:11:00,
2013-06-25 01:22:00,64.0,45.0,29.63,East,83,5.0,-999.0,49,-99.99,,,-99.99,,2013-06-25 07:22:00,
2013-06-25 02:43:00,63.0,47.0,29.64,SE,141,10.0,-999.0,56,-99.99,,,-99.99,,2013-06-25 08:43:00,
2013-06-25 03:12:00,63.0,47.0,29.61,SE,140,13.0,-999.0,56,-99.99,,,-99.99,,2013-06-25 09:12:00,
2013-06-25 03:22:00,63.0,47.0,29.61,SE,140,13.0,-999.0,56,-99.99,,,-99.99,,2013-06-25 09:22:00,
2013-06-25 04:11:00,61.0,48.0,29.68,SSE,150,10.0,-999.0,62,-99.99,,,-99.99,,2013-06-25 10:11:00,
2013-06-25 04:42:00,63.0,48.0,29.67,SSE,149,12.0,-999.0,59,-99.99,,,-99.99,,2013-06-25 10:42:00,
2013-06-25 05:02:00,60.0,50.0,29.69,South,186,10.0,-999.0,70,-99.99,,,-99.99,,2013-06-25 11:02:00,
2013-06-25 05:22:00,60.0,49.0,29.64,South,186,13.0,-999.0,69,-99.99,,,-99.99,,2013-06-25 11:22:00,
2013-06-25 05:43:00,63.0,47.0,29.68,South,187,6.0,-999.0,54,-99.99,,,-99.99,,2013-06-25 11:43:00,
2013-06-25 06:11:00,64.0,48.0,29.67,SW,228,10.0,-999.0,55,-99.99,,,-99.99,,2013-06-25 12:11:00,
2013-06-25 06:43:00,63.0,50.0,29.67,South,180,8.0,-999.0,63,-99.99,,,-99.99,,2013-06-25 12:43:00,
2013-06-25 07:22:00,63.0,50.0,29.68,South,181,10.0,-999.0,61,-99.99,,,-99.99,,2013-06-25 13:22:00,
2013-06-25 07:42:00,63.0,50.0,29.65,South,184,12.0,-999.0,63,-99.99,,,-99.99,,2013-06-25 13:42:00,
2013-06-25 08:11:00,63.0,52.0,29.65,SSE,165,12.0,-999.0,68,-99.99,,,-99.99,,2013-06-25 14:11:00,
2013-06-25 08:43:00,63.0,52.0,29.65,SSE,150,13.0,-999.0,67,-99.99,,,-99.99,,2013-06-25 14:43:00,
2013-06-25 09:11:00,67.0,56.0,29.62,SW,224,11.0,-999.0,67,-99.99,,,-99.99,,2013-06-25 15:11:00,
2013-06-25 09:22:00,67.0,56.0,29.62,SW,224,11.0,-999.0,67,-99.99,,,-99.99,,2013-06-25 15:22:00,
2013-06-25 10:12:00,72.0,56.0,29.65,WSW,250,13.0,-999.0,58,-99.99,,,-99.99,,2013-06-25 16:12:00,
2013-06-25 10:23:00,72.0,56.0,29.65,WSW,250,13.0,-999.0,58,-99.99,,,-99.99,,2013-06-25 16:23:00,
2013-06-25 10:35:00,74.0,58.0,29.68,SW,229,12.0,-999.0,57,-99.99,,,-99.99,,2013-06-25 16:35:00,
2013-06-25 10:44:00,74.0,56.0,29.67,WSW,240,12.0,-999.0,53,-99.99,,,-99.99,,2013-06-25 16:44:00,
2013-06-25 11:11:00,76.0,58.0,29.65,West,277,7.0,-999.0,54,-99.99,,,-99.99,,2013-06-25 17:11:00,
2013-06-25 12:44:00,81.0,46.0,29.65,WSW,255,18.0,-999.0,29,-99.99,,,-99.99,,2013-06-25 18:44:00,
2013-06-25 13:12:00,83.0,48.0,29.69,WSW,245,21.0,-999.0,30,-99.99,,,-99.99,,2013-06-25 19:12:00,
2013-06-25 13:22:00,83.0,48.0,29.69,WSW,245,21.0,-999.0,30,-99.99,,,-99.99,,2013-06-25 19:22:00,
2013-06-25 13:44:00,83.0,45.0,29.69,WSW,255,19.0,-999.0,26,-99.99,,,-99.99,,2013-06-25 19:44:00,
2013-06-25 14:42:00,82.0,52.0,29.68,WNW,298,21.0,-999.0,36,-99.99,,,-99.99,,2013-06-25 20:42:00,
2013-06-25 14:52:00,80.0,53.0,29.69,WNW,300,18.0,-999.0,39,-99.99,,,-99.99,,2013-06-25 20:52:00,
2013-06-25 15:22:00,82.0,55.0,29.73,NNW,327,18.0,-999.0,40,-99.99,,,-99.99,,2013-06-25 21:22:00,
2013-06-25 16:11:00,81.0,53.0,29.74,NW,325,18.0,-999.0,38,-99.99,,,-99.99,,2013-06-25 22:11:00,
2013-06-25 16:22:00,81.0,53.0,29.74,NW,325,18.0,-999.0,38,-99.99,,,-99.99,,2013-06-25 22:22:00,
2013-06-25 16:42:00,80.0,52.0,29.73,NNW,328,18.0,-999.0,37,-99.99,,,-99.99,,2013-06-25 22:42:00,
2013-06-25 17:11:00,80.0,53.0,29.72,NNW,333,17.0,-999.0,39,-99.99,,,-99.99,,2013-06-25 23:11:00,
2013-06-25 17:43:00,80.0,52.0,29.74,NW,324,19.0,-999.0,37,-99.99,,,-99.99,,2013-06-25 23:43:00,
2013-06-25 18:11:00,81.0,49.0,29.75,NNW,335,18.0,-999.0,33,-99.99,,,-99.99,,2013-06-26 00:11:00,
2013-06-25 18:22:00,81.0,49.0,29.75,NNW,335,18.0,-999.0,33,-99.99,,,-99.99,,2013-06-26 00:22:00,
2013-06-25 18:33:00,81.0,50.0,29.75,NNW,338,15.0,-999.0,35,-99.99,,,-99.99,,2013-06-26 00:33:00,
2013-06-25 19:11:00,78.0,53.0,29.79,NNW,336,13.0,-999.0,41,-99.99,,,-99.99,,2013-06-26 01:11:00,
2013-06-25 19:43:00,76.0,51.0,29.75,NW,314,10.0,-999.0,42,-99.99,,,-99.99,,2013-06-26 01:43:00,
2013-06-25 20:11:00,74.0,53.0,29.74,NW,309,9.0,-999.0,47,-99.99,,,-99.99,,2013-06-26 02:11:00,
2013-06-25 20:43:00,72.0,52.0,29.75,NW,319,11.0,-999.0,49,-99.99,,,-99.99,,2013-06-26 02:43:00,
2013-06-25 21:11:00,70.0,51.0,29.78,NW,304,8.0,-999.0,51,-99.99,,,-99.99,,2013-06-26 03:11:00,
2013-06-25 21:33:00,70.0,51.0,29.78,WNW,302,6.0,-999.0,51,-99.99,,,-99.99,,2013-06-26 03:33:00,
2013-06-25 21:52:00,69.0,51.0,29.76,WNW,292,6.0,-999.0,53,-99.99,,,-99.99,,2013-06-26 03:52:00,
2013-06-25 22:12:00,68.0,52.0,29.80,West,269,5.0,-999.0,56,-99.99,,,-99.99,,2013-06-26 04:12:00,
2013-06-25 22:33:00,67.0,51.0,29.79,NW,309,7.0,-999.0,56,-99.99,,,-99.99,,2013-06-26 04:33:00,
2013-06-25 22:43:00,66.0,51.0,29.78,NW,305,8.0,-999.0,57,-99.99,,,-99.99,,2013-06-26 04:43:00,
2013-06-25 23:11:00,64.0,51.0,29.80,West,261,6.0,-999.0,62,-99.99,,,-99.99,,2013-06-26 05:11:00,